N7DTY Weather Reports


time (UTC)temp
C
wind
direction
speed
KPH
gust
KPH
rain 1hr
cm
rain 24hr
cm
rain mn
cm
humidity
%
barometer
mb
20260906224545 19 184 1.6 8.0 0.00 0.00 0.00 66 1014.4
20260906223045 20 196 3.2 11.3 0.00 0.00 0.00 64 1014.3
20260906221544 20 187 3.2 11.3 0.00 0.00 0.00 64 1014.3
20260906220044 21 182 3.2 9.7 0.00 0.00 0.00 64 1014.2
20260906214541 22 220 1.6 8.0 0.00 0.00 0.00 62 1014.3
20260906213040 22 40 1.6 9.7 0.00 0.00 0.00 61 1014.4
20260906211538 22 28 3.2 16.1 0.00 0.00 0.00 60 1014.5
20260906210038 21 26 1.6 14.5 0.00 0.00 0.00 62 1014.6
20260906204549 21 338 3.2 9.7 0.00 0.00 0.00 60 1014.7
20260906203033 21 113 1.6 8.0 0.00 0.00 0.00 63 1014.8
20260906201534 20 105 3.2 8.0 0.00 0.00 0.00 66 1014.9
20260906200031 20 162 0.0 6.4 0.00 0.00 0.00 66 1015.0
20260906194528 20 178 1.6 11.3 0.00 0.00 0.00 67 1015.0
20260906193027 19 254 1.6 8.0 0.00 0.00 0.00 68 1015.0
20260906191525 20 34 1.6 12.9 0.00 0.00 0.00 68 1015.3
20260906190023 20 167 1.6 6.4 0.00 0.00 0.00 66 1015.4
20260906184521 20 231 1.6 8.0 0.00 0.00 0.00 69 1015.6
20260906183015 20 178 1.6 8.0 0.00 0.00 0.00 64 1015.8
20260906181513 20 29 3.2 8.0 0.00 0.00 0.00 60 1016.1
20260906180010 18 275 3.2 16.1 0.00 0.00 0.00 63 1016.1
20260906174503 17 284 4.8 14.5 0.00 0.00 0.00 65 1016.2
20260906173059 17 325 8.0 16.1 0.00 0.00 0.00 65 1016.2
20260906171556 16 321 6.4 16.1 0.00 0.00 0.00 68 1016.3
20260906170054 15 5 3.2 14.5 0.00 0.00 0.00 71 1016.4
20260906164550 14 16 3.2 14.5 0.00 0.00 0.00 74 1016.5
20260906163043 13 35 3.2 16.1 0.00 0.00 0.00 77 1016.7
20260906161545 13 346 8.0 12.9 0.00 0.00 0.00 78 1016.7
20260906160038 12 10 4.8 14.5 0.00 0.00 0.00 81 1016.8
20260906154543 12 5 6.4 16.1 0.00 0.00 0.00 84 1016.9
20260906153036 11 25 8.0 14.5 0.00 0.00 0.00 85 1017.0
20260906151535 10 344 3.2 6.4 0.00 0.00 0.00 91 1016.9
20260906150042 9 339 0.0 3.2 0.00 0.00 0.00 92 1017.1
20260906144530 9 339 0.0 4.8 0.00 0.00 0.00 91 1017.0
20260906143028 9 339 1.6 4.8 0.00 0.00 0.00 91 1017.0
20260906141528 9 337 1.6 4.8 0.00 0.00 0.00 91 1016.9
20260906140034 8 339 1.6 6.4 0.00 0.00 0.00 92 1016.6
20260906134525 8 339 0.0 3.2 0.00 0.00 0.00 91 1016.4
20260906133026 9 339 1.6 3.2 0.00 0.00 0.00 92 1016.4
20260906131527 8 341 3.2 6.4 0.00 0.00 0.00 92 1016.3
20260906130033 8 348 1.6 6.4 0.00 0.00 0.00 92 1016.3
20260906124522 9 355 1.6 4.8 0.00 0.00 0.00 92 1016.4
20260906123034 9 26 1.6 4.8 0.00 0.00 0.00 92 1016.5
20260906121520 9 30 0.0 3.2 0.00 0.00 0.00 92 1016.5
20260906120019 9 30 1.6 4.8 0.00 0.00 0.00 91 1016.5
20260906114520 9 30 0.0 3.2 0.00 0.00 0.00 91 1016.5
20260906113016 10 30 0.0 3.2 0.00 0.00 0.00 91 1016.5
20260906111514 10 30 0.0 0.0 0.00 0.00 0.00 91 1016.5
20260906110012 10 30 0.0 1.6 0.00 0.00 0.00 91 1016.6
20260906104524 10 30 0.0 1.6 0.00 0.00 0.00 90 1016.4
20260906103031 10 30 0.0 0.0 0.00 0.00 0.00 90 1016.4
20260906101509 10 30 0.0 1.6 0.00 0.00 0.00 90 1016.3
20260906100020 10 30 0.0 1.6 0.00 0.00 0.00 89 1016.4
20260906094505 10 30 0.0 3.2 0.00 0.00 0.00 89 1016.4
20260906093010 11 30 0.0 3.2 0.00 0.00 0.00 88 1016.4
20260906091504 11 30 0.0 1.6 0.00 0.00 0.00 87 1016.6
20260906090059 11 30 0.0 1.6 0.00 0.00 0.00 86 1016.6
20260906084601 11 30 0.0 1.6 0.00 0.00 0.00 86 1016.7
20260906083055 12 30 0.0 6.4 0.00 0.00 0.00 86 1016.8
20260906081557 12 5 4.8 6.4 0.00 0.00 0.00 85 1016.6
20260906080056 12 355 0.0 6.4 0.00 0.00 0.00 84 1016.7
20260906074553 12 355 4.8 6.4 0.00 0.00 0.00 85 1016.7
20260906073051 12 350 4.8 8.0 0.00 0.00 0.00 87 1016.8
20260906071546 12 355 3.2 6.4 0.00 0.00 0.00 89 1017.0
20260906070044 12 199 0.0 1.6 0.00 0.00 0.00 88 1017.0
20260906064542 12 199 0.0 0.0 0.00 0.00 0.00 87 1016.8
20260906063045 12 199 0.0 0.0 0.00 0.00 0.00 86 1016.7
20260906061541 12 199 0.0 0.0 0.00 0.00 0.00 86 1016.8
20260906060041 12 199 0.0 1.6 0.00 0.00 0.00 86 1016.8
20260906054558 12 199 0.0 0.0 0.00 0.00 0.00 85 1016.9
20260906053039 13 199 0.0 0.0 0.00 0.00 0.00 84 1017.0
20260906051539 13 199 0.0 0.0 0.00 0.00 0.00 84 1017.1
20260906050040 13 199 0.0 0.0 0.00 0.00 0.00 83 1017.2
20260906044538 13 199 0.0 0.0 0.00 0.00 0.00 82 1017.2
20260906043038 13 199 0.0 1.6 0.00 0.00 0.00 82 1017.2
20260906041537 13 199 0.0 0.0 0.00 0.00 0.00 81 1017.1
20260906040045 13 199 0.0 0.0 0.00 0.00 0.00 81 1017.1
20260906034547 14 199 0.0 0.0 0.00 0.00 0.00 80 1017.0
20260906033036 15 199 0.0 0.0 0.00 0.00 0.00 80 1017.0
20260906031602 15 199 0.0 0.0 0.00 0.00 0.00 78 1016.9
20260906030038 16 199 0.0 0.0 0.00 0.00 0.00 76 1016.9
20260906024553 16 199 0.0 0.0 0.00 0.00 0.00 74 1016.8
20260906023041 16 199 0.0 0.0 0.00 0.00 0.00 73 1016.9
20260906021534 16 199 0.0 0.0 0.00 0.00 0.00 73 1017.0
20260906020033 17 199 0.0 0.0 0.00 0.00 0.00 72 1016.8
20260906014533 17 199 0.0 1.6 0.00 0.00 0.00 72 1016.7
20260906013033 17 199 0.0 0.0 0.00 0.00 0.00 70 1016.5
20260906011533 17 194 0.0 0.0 0.00 0.00 0.00 71 1016.5
20260906010044 17 194 0.0 3.2 0.00 0.00 0.00 71 1016.4
20260906004531 18 195 1.6 6.4 0.00 0.00 0.00 70 1016.4
20260906003030 18 183 1.6 6.4 0.00 0.00 0.00 67 1016.5
20260906001535 18 161 1.6 4.8 0.00 0.00 0.00 67 1016.5
20260906000030 18 148 0.0 4.8 0.00 0.00 0.00 68 1016.4
20260905234529 18 178 0.0 4.8 0.00 0.00 0.00 68 1016.5
20260905233028 18 159 1.6 6.4 0.00 0.00 0.00 69 1016.5
20260905231528 18 138 0.0 4.8 0.00 0.00 0.00 75 1016.4
20260905230033 18 166 1.6 8.0 0.00 0.00 0.00 76 1016.4